Location: Biharia
(46.4333°N, 22.8000°E)
Time: 17:40:04
(UTC+00:00)

FENGYUN 1C DEB - Pass Details

Date: 14 August 2022
Orbit: 796 x 915 km, 98.9° (Epoch: 24 September)

Event Time Altitude Azimuth Distance (km) Brightness Sun altitude
Rises 22:27:27 0° 23° (NNE) 3,434 ? -29.4°
Reaches altitude 10° 22:30:10 10° 34° (NE) 2,473 ? -29.4°
Enters shadow 22:34:18 29° 82° (E) 1,486 ? -29.4°
